Montana Department of Transportation

Main Content

Accidents and Incidents Report

Hourly Weather Roundup

ASUS45 KTFX 010410
RWRMT 
MONTANA REGIONAL WEATHER ROUNDUP
NATIONAL WEATHER SERVICE GREAT FALLS MT
1000 PM MDT TUE JUN 30 2015

NOTE: "FAIR" INDICATES FEW OR NO CLOUDS BELOW 12000 FEET WITH NO
SIGNIFICANT WEATHER AND/OR OBSTRUCTIONS TO VISIBILITY.

MTZ001.007-043-010500-
WEST OF THE DIVIDE
  
CITY           SKY/WX    TMP DP  RH WIND       PRES   REMARKS
KALISPELL      CLEAR     76  48  37 W3        29.96S                  
MISSOULA       CLEAR     78  48  34 N6        29.99R                  
BUTTE          CLEAR     75  43  31 N5        30.15R                  
MULLAN PASS    CLEAR     66  44  45 NW3       30.21S                  
DEER LODGE       N/A     72  46  40 W5        30.12R                  
EUREKA           N/A     75  54  46 NE3       29.96S                  
HAMILTON         N/A     73  50  43 SE6       30.03R                  
--------------------------------

MTZ008-052.055-010500-
SOUTHWEST MONTANA
  
CITY           SKY/WX    TMP DP  RH WIND       PRES   REMARKS
BOZEMAN        CLEAR     74  48  39 NW3       30.05R                  
DILLON         MOCLDY    73  46  38 E12       30.09R                  
W YELLOWSTONE  MOCLDY    68  50  52 W5        30.22R                  
--------------------------------

MTZ009-010-012-014-046-048-049-054-010500-
EAST SLOPES AND CENTRAL MONTANA
  
CITY           SKY/WX    TMP DP  RH WIND       PRES   REMARKS
CUT BANK       CLEAR     69  53  56 NE7       30.04R HAZE             
GREAT FALLS    CLEAR     76  51  41 NE14      30.01R                  
HELENA         CLEAR     81  45  28 W9        30.00R                  
--------------------------------

MTZ011-013-016-021-045-047-050-051-010500-
NORTH CENTRAL MONTANA
  
CITY           SKY/WX    TMP DP  RH WIND       PRES   REMARKS
HAVRE          MOCLDY    73  55  53 NE9       29.96R HAZE             
LEWISTOWN      CLEAR     67  53  61 S5        30.05R                  
CHINOOK          N/A     72  55  56 CALM      29.95R                  
FORT BENTON      N/A     75  54  46 NE3       29.98R                  
--------------------------------

MTZ017.020-022.027-061-062-010500-
NORTHEAST MONTANA
  
CITY           SKY/WX    TMP DP  RH WIND       PRES   REMARKS
JORDAN           N/A     77  53  43 NW12      29.90R                  
SIDNEY         PTCLDY    66  59  77 NE9       29.90R                  
WOLF POINT     CLEAR     67  58  72 NE8       29.90R HAZE             
PLENTYWOOD       N/A     63  61  94 CALM      29.94R                  
POPLAR           N/A     66  59  77 N7        29.91R                  
--------------------------------

MTZ028.42-056.058-010500-
SOUTHCENTRAL AND SOUTHEAST MONTANA
  
CITY           SKY/WX    TMP DP  RH WIND       PRES   REMARKS
BAKER          CLEAR     65  60  84 S8        29.89S                  
BILLINGS       PTCLDY    81  41  24 N13       29.98R                  
LIVINGSTON     CLEAR     76  49  38 CALM      30.06R                  
MILES CITY     CLEAR     83  51  33 N15       29.87R                  
FORSYTH          N/A     82  52  34 N6        29.91R                  
--------------------------------

REGIONAL REPORTS...DAKOTAS
  
CITY           SKY/WX    TMP DP  RH WIND       PRES   REMARKS
WILLISTON      CLOUDY    67  61  81 CALM      29.90S                  
MINOT          CLOUDY    66  64  93 NE3       29.89S FOG              
DICKINSON      PTCLDY    64  62  93 NE13      29.91R FOG              
BEACH          LGT RAIN  64  64 100 E13       29.91S                  
CROSBY         FOG       57  57 100 CALM      29.92F VSB.1/4          
BISMARCK       HVY RAIN  66  64  93 NE18G24   29.93R FOG              
GRAND FORKS    CLOUDY    64  60  87 CALM      29.91S                  
FARGO          CLOUDY    66  61  84 E3        29.90F                  
BUFFALO SD       N/A     66  60  81 E9        29.84R                  
RAPID CITY     CLEAR     70  67  90 CALM      29.92R                  
--------------------------------

REGIONAL REPORTS...WYOMING/IDAHO/WASHINGTON
  
CITY           SKY/WX    TMP DP  RH WIND       PRESREMARKS
GILLETTE       PTCLDY    68  54  60 CALM      30.01R                  
SHERIDAN       PTCLDY    73  50  44 VRB3      29.99R                  
BUFFALO WY     PTCLDY    74  49  41 W10       30.08R                  
CODY           PTCLDY    75  46  35 W3        30.09R                  
YELLOWSTONE LA   N/A     60  48  64 NW3       30.33R                  
IDAHO FALLS    PTCLDY    68  63  84 CALM      30.06S                  
SALMON         CLEAR     77  52  41 CALM      29.99R                  
BOISE          PTCLDY    89  44  20 NW6       29.90R                  
SPOKANE        PTCLDY    88  45  22 CALM      29.94S                  
--------------------------------

REGIONAL REPORTS...ALBERTA
  
CITY           SKY/WX    TMP DP  RH WIND       PRES   REMARKS
EDMONTON       CLOUDY    64  57  77 CALM      29.97S                  
CALGARY        TSTM      64  57  77 NW6       30.06R                  
LETHBRIDGE     PTCLDY    68  63  83 E2        30.01R SMOKE            
MEDICINE HAT   CLEAR     66  54  63 E3        29.98R HAZE             
WATERTON GATE    N/A     64  57  77 NE3         N/A                   
CARDSTON         N/A     66  61  82 S2          N/A                   
MILK RIVER       N/A     61  55  82 NE5         N/A                   
ONEFOUR          N/A     66  52  59 NE12        N/A                   
--------------------------------

REGIONAL REPORTS...SASKATCHEWAN
  
CITY           SKY/WX    TMP DP  RH WIND       PRES   REMARKS
SWIFT CURRENT  PTCLDY    63  59  88 E6        29.99R FOG              
REGINA         MOCLDY    61  59  94 N2        29.96R SMOKE            
CYPRESS HILLS    N/A     57  50  77 NE2         N/A                   
VAL MARIE        N/A     64  57  77 E7          N/A                   
ROCKGLEN         N/A     61  57  88 NE2         N/A                   
ASSINIBOIA       N/A     68  61  77 S1          N/A                   
--------------------------------